Terug naar catalogus

KUIPER-00055

ActiefCommunicatieLEO
NORAD 64515·PAYLOAD·🇺🇸 United States

Gelanceerd Jun 23, 2025 vanaf Cape Canaveral Space Force Station

Loading…

Volgende Passages (komende 24 uur)

TLE

VersSource: CelesTrak SupGP

Epoch: Sep 15, 2026, 03:15 UTC

1 64515C 25134R   26258.13589120 -.00000696  00000+0 -91090-4 0  2581
2 64515  51.9016  52.9574 0000596 114.1234 156.5751 14.79936126    12

Volg KUIPER-00055 in realtime met AllMySat

Download on the App Store